| time (UTC) | temp C | wind direction | speed KPH | gust KPH | rain 1hr cm | rain 24hr cm | rain mn cm | humidity % | barometer mb |
| 20260903195204 | 22 | 67 | 0.0 | 3.2 | 0.00 | 0.20 | 0.20 | 88 | 1011.8 |
| 20260903194704 | 22 | 67 | 0.0 | 1.6 | 0.00 | 0.20 | 0.20 | 88 | 1011.8 |
| 20260903192704 | 22 | 52 | 0.0 | 0.0 | 0.00 | 0.20 | 0.20 | 89 | 1012.0 |
| 20260903191204 | 22 | 53 | 0.0 | 1.6 | 0.00 | 0.20 | 0.20 | 88 | 1012.0 |
| 20260903190704 | 22 | 53 | 0.0 | 1.6 | 0.00 | 0.20 | 0.20 | 89 | 1012.1 |
| 20260903190204 | 22 | 51 | 0.0 | 0.0 | 0.00 | 0.20 | 0.20 | 88 | 1012.2 |
| 20260903185704 | 22 | 51 | 0.0 | 1.6 | 0.00 | 0.20 | 0.20 | 87 | 1012.3 |
| 20260903184705 | 21 | 131 | 0.0 | 0.0 | 0.00 | 0.20 | 0.20 | 90 | 1012.5 |
| 20260903184204 | 21 | 131 | 0.0 | 3.2 | 0.00 | 0.20 | 0.20 | 89 | 1012.6 |
| 20260903182704 | 21 | 90 | 0.0 | 3.2 | 0.00 | 0.20 | 0.20 | 89 | 1012.5 |
| 20260903180704 | 21 | 85 | 0.0 | 1.6 | 0.00 | 0.20 | 0.20 | 90 | 1012.7 |
| 20260903175705 | 21 | 85 | 0.0 | 1.6 | 0.00 | 0.20 | 0.20 | 91 | 1013.0 |
| 20260903173205 | 21 | 71 | 0.0 | 0.0 | 0.00 | 0.20 | 0.20 | 92 | 1013.2 |
| 20260903172204 | 21 | 71 | 0.0 | 0.0 | 0.00 | 0.20 | 0.20 | 91 | 1013.1 |
| 20260903170705 | 20 | 72 | 0.0 | 1.6 | 0.00 | 0.20 | 0.20 | 92 | 1012.9 |
| 20260903170205 | 20 | 70 | 0.0 | 1.6 | 0.00 | 0.20 | 0.20 | 91 | 1012.9 |
| 20260903163204 | 20 | 217 | 0.0 | 1.6 | 0.00 | 0.20 | 0.20 | 95 | 1013.0 |
| 20260903162704 | 20 | 217 | 0.0 | 0.0 | 0.00 | 0.20 | 0.20 | 94 | 1013.1 |
| 20260903161704 | 20 | 217 | 0.0 | 0.0 | 0.00 | 0.20 | 0.20 | 94 | 1013.1 |
| 20260903161204 | 20 | 217 | 0.0 | 1.6 | 0.00 | 0.20 | 0.20 | 94 | 1013.2 |
| 20260903160704 | 20 | 219 | 0.0 | 1.6 | 0.00 | 0.20 | 0.20 | 95 | 1013.3 |
| 20260903160204 | 20 | 69 | 0.0 | 1.6 | 0.00 | 0.20 | 0.20 | 96 | 1013.3 |
| 20260903155204 | 19 | 90 | 0.0 | 1.6 | 0.00 | 0.20 | 0.20 | 96 | 1013.0 |
| 20260903154704 | 19 | 93 | 0.0 | 1.6 | 0.00 | 0.20 | 0.20 | 97 | 1013.3 |
| 20260903153705 | 18 | 67 | 0.0 | 1.6 | 0.00 | 0.20 | 0.20 | 97 | 1013.5 |
| 20260903153204 | 18 | 53 | 0.0 | 1.6 | 0.00 | 0.20 | 0.20 | 96 | 1013.7 |
| 20260903152705 | 18 | 53 | 0.0 | 1.6 | 0.00 | 0.20 | 0.20 | 97 | 1013.7 |
| 20260903152205 | 18 | 53 | 0.0 | 1.6 | 0.00 | 0.20 | 0.20 | 97 | 1013.7 |
| 20260903150704 | 18 | 53 | 0.0 | 1.6 | 0.00 | 0.20 | 0.20 | 97 | 1013.8 |
| 20260903145204 | 18 | 53 | 0.0 | 0.0 | 0.00 | 0.20 | 0.20 | 97 | 1014.0 |
| 20260903143704 | 18 | 51 | 0.0 | 0.0 | 0.00 | 0.20 | 0.20 | 97 | 1014.0 |
| 20260903143204 | 18 | 51 | 0.0 | 0.0 | 0.00 | 0.20 | 0.20 | 97 | 1013.9 |
| 20260903142204 | 18 | 51 | 0.0 | 1.6 | 0.00 | 0.20 | 0.20 | 97 | 1013.9 |
| 20260903135704 | 18 | 51 | 0.0 | 0.0 | 0.00 | 0.20 | 0.20 | 98 | 1014.5 |
| 20260903135204 | 17 | 51 | 0.0 | 0.0 | 0.00 | 0.20 | 0.20 | 97 | 1014.5 |
| 20260903134704 | 17 | 51 | 0.0 | 0.0 | 0.00 | 0.20 | 0.20 | 97 | 1014.4 |
| 20260903133204 | 17 | 51 | 0.0 | 0.0 | 0.00 | 0.20 | 0.20 | 98 | 1014.2 |
| 20260903132204 | 17 | 52 | 0.0 | 0.0 | 0.00 | 0.20 | 0.20 | 98 | 1014.2 |
| 20260903131204 | 17 | 52 | 0.0 | 0.0 | 0.00 | 0.20 | 0.20 | 98 | 1014.4 |
| 20260903124704 | 17 | 51 | 0.0 | 0.0 | 0.00 | 0.20 | 0.20 | 98 | 1014.4 |
| 20260903123704 | 17 | 51 | 0.0 | 0.0 | 0.00 | 0.20 | 0.20 | 98 | 1014.6 |
| 20260903123205 | 17 | 51 | 0.0 | 0.0 | 0.00 | 0.20 | 0.20 | 98 | 1014.8 |
| 20260903122204 | 17 | 51 | 0.0 | 0.0 | 0.00 | 0.20 | 0.20 | 97 | 1014.9 |
| 20260903121704 | 17 | 52 | 0.0 | 0.0 | 0.00 | 0.20 | 0.20 | 97 | 1014.9 |
| 20260903121204 | 17 | 52 | 0.0 | 0.0 | 0.00 | 0.20 | 0.20 | 97 | 1014.9 |
| 20260903115703 | 17 | 52 | 0.0 | 0.0 | 0.00 | 0.20 | 0.20 | 97 | 1015.0 |
| 20260903114204 | 17 | 52 | 0.0 | 0.0 | 0.00 | 0.20 | 0.20 | 97 | 1015.3 |
| 20260903113204 | 17 | 52 | 0.0 | 0.0 | 0.00 | 0.20 | 0.20 | 97 | 1015.4 |
| 20260903112704 | 17 | 52 | 0.0 | 0.0 | 0.00 | 0.20 | 0.20 | 97 | 1015.5 |
| 20260903112204 | 17 | 52 | 0.0 | 0.0 | 0.00 | 0.20 | 0.20 | 96 | 1015.3 |
| 20260903111204 | 17 | 52 | 0.0 | 0.0 | 0.00 | 0.20 | 0.20 | 96 | 1015.2 |
| 20260903110704 | 17 | 52 | 0.0 | 0.0 | 0.00 | 0.20 | 0.20 | 96 | 1015.2 |
| 20260903105704 | 17 | 52 | 0.0 | 0.0 | 0.03 | 0.20 | 0.20 | 96 | 1015.3 |
| 20260903101204 | 16 | 51 | 0.0 | 0.0 | 0.08 | 0.20 | 0.20 | 96 | 1015.2 |
| 20260903100204 | 17 | 51 | 0.0 | 0.0 | 0.05 | 0.18 | 0.18 | 96 | 1015.3 |
| 20260903095204 | 17 | 52 | 0.0 | 0.0 | 0.05 | 0.18 | 0.18 | 96 | 1015.2 |
| 20260903092704 | 17 | 51 | 0.0 | 0.0 | 0.03 | 0.15 | 0.15 | 95 | 1015.4 |
| 20260903091203 | 17 | 51 | 0.0 | 1.6 | 0.03 | 0.13 | 0.13 | 95 | 1015.6 |
| 20260903085704 | 17 | 52 | 0.0 | 0.0 | 0.13 | 0.13 | 0.13 | 95 | 1015.9 |
| 20260903085204 | 17 | 52 | 0.0 | 0.0 | 0.13 | 0.13 | 0.13 | 94 | 1015.8 |
| 20260903084704 | 17 | 52 | 0.0 | 0.0 | 0.13 | 0.13 | 0.13 | 94 | 1015.9 |
| 20260903084204 | 17 | 52 | 0.0 | 0.0 | 0.13 | 0.13 | 0.13 | 94 | 1015.8 |
| 20260903083703 | 17 | 52 | 0.0 | 0.0 | 0.13 | 0.13 | 0.13 | 94 | 1015.7 |
| 20260903082204 | 17 | 50 | 0.0 | 0.0 | 0.13 | 0.13 | 0.13 | 93 | 1015.7 |
| 20260903081203 | 17 | 50 | 0.0 | 0.0 | 0.10 | 0.10 | 0.10 | 93 | 1015.8 |
| 20260903080704 | 17 | 50 | 0.0 | 1.6 | 0.05 | 0.05 | 0.05 | 92 | 1015.8 |
| 20260903075704 | 17 | 50 | 0.0 | 0.0 | 0.00 | 0.00 | 0.00 | 92 | 1015.6 |
| 20260903074704 | 17 | 50 | 0.0 | 0.0 | 0.00 | 0.00 | 0.00 | 92 | 1015.7 |
| 20260903073704 | 17 | 50 | 0.0 | 0.0 | 0.00 | 0.00 | 0.00 | 93 | 1015.8 |
| 20260903073204 | 17 | 50 | 0.0 | 0.0 | 0.00 | 0.00 | 0.00 | 92 | 1015.6 |
| 20260903072204 | 17 | 50 | 0.0 | 0.0 | 0.00 | 0.00 | 0.00 | 94 | 1015.9 |
| 20260903071203 | 17 | 50 | 0.0 | 0.0 | 0.00 | 0.00 | 0.00 | 93 | 1015.9 |
| 20260903070203 | 17 | 50 | 0.0 | 0.0 | 0.00 | 0.00 | 0.00 | 94 | 1016.0 |
| 20260903064704 | 17 | 50 | 0.0 | 0.0 | 0.00 | 0.00 | 0.00 | 94 | 1016.5 |
| 20260903061204 | 17 | 50 | 0.0 | 0.0 | 0.00 | 0.00 | 0.00 | 94 | 1017.6 |
| 20260903055204 | 17 | 50 | 0.0 | 0.0 | 0.00 | 0.00 | 0.00 | 94 | 1018.2 |
| 20260903054204 | 17 | 50 | 0.0 | 0.0 | 0.00 | 0.00 | 0.00 | 94 | 1018.1 |
| 20260903053704 | 17 | 50 | 0.0 | 0.0 | 0.00 | 0.00 | 0.00 | 94 | 1018.1 |
| 20260903052703 | 17 | 50 | 0.0 | 0.0 | 0.00 | 0.00 | 0.00 | 94 | 1018.0 |
| 20260903050703 | 17 | 50 | 0.0 | 0.0 | 0.00 | 0.00 | 0.00 | 94 | 1017.9 |
| 20260903045703 | 17 | 50 | 0.0 | 0.0 | 0.00 | 0.00 | 0.00 | 94 | 1018.0 |
| 20260903043703 | 17 | 50 | 0.0 | 0.0 | 0.00 | 0.00 | 0.00 | 94 | 1018.3 |
| 20260903042203 | 17 | 50 | 0.0 | 0.0 | 0.00 | 0.00 | 0.00 | 94 | 1018.3 |
| 20260903041203 | 17 | 50 | 0.0 | 0.0 | 0.00 | 0.00 | 0.00 | 94 | 1018.4 |
| 20260903040203 | 17 | 50 | 0.0 | 0.0 | 0.00 | 0.00 | 0.00 | 94 | 1018.3 |
| 20260903035703 | 17 | 50 | 0.0 | 0.0 | 0.00 | 0.00 | 0.00 | 93 | 1018.5 |
| 20260903035204 | 17 | 50 | 0.0 | 0.0 | 0.00 | 0.00 | 0.00 | 93 | 1018.4 |
| 20260903034204 | 17 | 50 | 0.0 | 0.0 | 0.00 | 0.00 | 0.00 | 93 | 1018.5 |
| 20260903033703 | 18 | 50 | 0.0 | 0.0 | 0.00 | 0.00 | 0.00 | 93 | 1018.6 |
| 20260903032703 | 18 | 50 | 0.0 | 0.0 | 0.00 | 0.00 | 0.00 | 93 | 1018.8 |
| 20260903032203 | 18 | 50 | 0.0 | 0.0 | 0.00 | 0.00 | 0.00 | 94 | 1019.0 |
| 20260903031704 | 18 | 50 | 0.0 | 0.0 | 0.00 | 0.00 | 0.00 | 93 | 1019.0 |
| 20260903031203 | 18 | 50 | 0.0 | 0.0 | 0.00 | 0.00 | 0.00 | 93 | 1018.9 |
| 20260903030704 | 18 | 50 | 0.0 | 0.0 | 0.00 | 0.00 | 0.00 | 93 | 1018.9 |
| 20260903025703 | 18 | 50 | 0.0 | 0.0 | 0.00 | 0.00 | 0.00 | 93 | 1019.0 |
| 20260903025204 | 18 | 50 | 0.0 | 0.0 | 0.00 | 0.00 | 0.00 | 93 | 1019.1 |
| 20260903024703 | 18 | 50 | 0.0 | 0.0 | 0.00 | 0.00 | 0.00 | 93 | 1019.1 |
| 20260903024204 | 18 | 50 | 0.0 | 0.0 | 0.00 | 0.00 | 0.00 | 93 | 1019.1 |
| 20260903022204 | 18 | 50 | 0.0 | 0.0 | 0.00 | 0.00 | 0.00 | 93 | 1019.3 |
| 20260903021704 | 18 | 50 | 0.0 | 0.0 | 0.00 | 0.00 | 0.00 | 93 | 1019.2 |
| 20260903021203 | 18 | 50 | 0.0 | 0.0 | 0.00 | 0.00 | 0.00 | 93 | 1019.1 |
| 20260903020704 | 18 | 50 | 0.0 | 0.0 | 0.00 | 0.00 | 0.00 | 93 | 1019.2 |
| 20260903015704 | 18 | 50 | 0.0 | 0.0 | 0.00 | 0.00 | 0.00 | 93 | 1019.4 |
| 20260903015203 | 18 | 50 | 0.0 | 0.0 | 0.00 | 0.00 | 0.00 | 93 | 1019.6 |
| 20260903014204 | 18 | 50 | 0.0 | 0.0 | 0.00 | 0.00 | 0.00 | 93 | 1019.6 |
| 20260903013704 | 18 | 50 | 0.0 | 0.0 | 0.00 | 0.00 | 0.00 | 93 | 1019.6 |
| 20260903013203 | 18 | 50 | 0.0 | 0.0 | 0.00 | 0.00 | 0.00 | 92 | 1019.6 |
| 20260903012704 | 18 | 50 | 0.0 | 3.2 | 0.00 | 0.00 | 0.00 | 92 | 1019.3 |
| 20260903011204 | 18 | 188 | 0.0 | 0.0 | 0.00 | 0.00 | 0.00 | 92 | 1019.0 |
| 20260903010705 | 18 | 188 | 0.0 | 1.6 | 0.00 | 0.00 | 0.00 | 92 | 1019.1 |
| 20260903010205 | 18 | 103 | 0.0 | 0.0 | 0.00 | 0.00 | 0.00 | 92 | 1019.1 |
| 20260903005205 | 18 | 103 | 0.0 | 0.0 | 0.00 | 0.00 | 0.00 | 92 | 1019.2 |
| 20260903004705 | 18 | 103 | 0.0 | 1.6 | 0.00 | 0.00 | 0.00 | 92 | 1019.2 |
| 20260903004204 | 18 | 103 | 0.0 | 0.0 | 0.00 | 0.00 | 0.00 | 92 | 1019.1 |
| 20260903003705 | 18 | 102 | 0.0 | 1.6 | 0.00 | 0.00 | 0.00 | 92 | 1019.1 |
| 20260903002704 | 18 | 104 | 0.0 | 0.0 | 0.00 | 0.00 | 0.00 | 91 | 1019.2 |
| 20260903000205 | 19 | 53 | 0.0 | 0.0 | 0.00 | 0.00 | 0.00 | 91 | 1019.3 |
| 20260902235705 | 19 | 53 | 0.0 | 0.0 | 0.00 | 0.00 | 0.00 | 91 | 1019.5 |
| 20260902233705 | 19 | 53 | 0.0 | 1.6 | 0.00 | 0.00 | 0.00 | 91 | 1019.8 |
| 20260902233204 | 19 | 53 | 0.0 | 1.6 | 0.00 | 0.00 | 0.00 | 90 | 1020.0 |
| 20260902232705 | 19 | 53 | 0.0 | 0.0 | 0.00 | 0.00 | 0.00 | 90 | 1020.0 |
| 20260902232204 | 19 | 53 | 0.0 | 3.2 | 0.00 | 0.00 | 0.00 | 89 | 1019.9 |
| 20260902231204 | 20 | 57 | 0.0 | 1.6 | 0.00 | 0.00 | 0.00 | 89 | 1020.2 |
| 20260902225705 | 20 | 40 | 1.6 | 4.8 | 0.00 | 0.00 | 0.00 | 88 | 1020.0 |
| 20260902224204 | 20 | 15 | 0.0 | 3.2 | 0.00 | 0.00 | 0.00 | 88 | 1020.3 |
| 20260902221705 | 20 | 82 | 1.6 | 4.8 | 0.00 | 0.00 | 0.00 | 86 | 1020.4 |
| 20260902221204 | 20 | 118 | 0.0 | 3.2 | 0.00 | 0.00 | 0.00 | 87 | 1020.4 |
| 20260902220705 | 20 | 122 | 0.0 | 8.0 | 0.00 | 0.00 | 0.00 | 86 | 1020.3 |
| 20260902214705 | 21 | 70 | 0.0 | 1.6 | 0.00 | 0.00 | 0.00 | 86 | 1020.2 |
| 20260902214204 | 21 | 69 | 0.0 | 1.6 | 0.00 | 0.00 | 0.00 | 86 | 1020.2 |
| 20260902213705 | 21 | 67 | 0.0 | 1.6 | 0.00 | 0.00 | 0.00 | 86 | 1020.3 |
| 20260902213204 | 21 | 67 | 0.0 | 1.6 | 0.00 | 0.00 | 0.00 | 85 | 1020.3 |
| 20260902210704 | 21 | 256 | 1.6 | 4.8 | 0.00 | 0.03 | 0.00 | 84 | 1019.9 |
| 20260902210205 | 21 | 80 | 0.0 | 3.2 | 0.00 | 0.03 | 0.00 | 84 | 1019.9 |
| 20260902205204 | 21 | 65 | 0.0 | 1.6 | 0.00 | 0.03 | 0.00 | 83 | 1020.2 |
| 20260902204204 | 21 | 123 | 1.6 | 9.7 | 0.00 | 0.03 | 0.00 | 82 | 1020.3 |
| 20260902203705 | 21 | 153 | 1.6 | 4.8 | 0.00 | 0.03 | 0.00 | 85 | 1020.4 |
| 20260902203204 | 21 | 69 | 1.6 | 8.0 | 0.00 | 0.03 | 0.00 | 83 | 1020.4 |
| 20260902200704 | 21 | 244 | 0.0 | 4.8 | 0.00 | 0.03 | 0.00 | 84 | 1020.7 |
| 20260902200205 | 21 | 79 | 1.6 | 4.8 | 0.00 | 0.03 | 0.00 | 84 | 1020.9 |